| time (UTC) | temp C | wind direction | speed KPH | gust KPH | rain 1hr cm | rain 24hr cm | rain mn cm | humidity % | barometer mb |
| 20260507070039 | 10 | 324 | 1.6 | 8.0 | 0.00 | 0.00 | 0.00 | 76 | 1015.9 |
| 20260507064622 | 10 | 312 | 3.2 | 9.7 | 0.00 | 0.00 | 0.00 | 75 | 1015.8 |
| 20260507063020 | 9 | 273 | 6.4 | 14.5 | 0.00 | 0.00 | 0.00 | 76 | 1015.7 |
| 20260507061515 | 8 | 276 | 1.6 | 9.7 | 0.00 | 0.00 | 0.00 | 79 | 1015.6 |
| 20260507060019 | 8 | 269 | 1.6 | 6.4 | 0.00 | 0.00 | 0.00 | 82 | 1015.7 |
| 20260507054507 | 7 | 253 | 1.6 | 8.0 | 0.00 | 0.00 | 0.00 | 84 | 1015.6 |
| 20260507053005 | 7 | 250 | 1.6 | 6.4 | 0.00 | 0.00 | 0.00 | 86 | 1015.5 |
| 20260507051501 | 6 | 245 | 1.6 | 4.8 | 0.00 | 0.00 | 0.00 | 88 | 1015.3 |
| 20260507050058 | 5 | 263 | 1.6 | 6.4 | 0.00 | 0.00 | 0.00 | 89 | 1015.3 |
| 20260507044615 | 5 | 240 | 3.2 | 4.8 | 0.00 | 0.00 | 0.00 | 89 | 1015.2 |
| 20260507043055 | 4 | 226 | 3.2 | 6.4 | 0.00 | 0.00 | 0.00 | 89 | 1015.0 |
| 20260507041554 | 3 | 226 | 3.2 | 6.4 | 0.00 | 0.00 | 0.00 | 89 | 1015.1 |
| 20260507040051 | 3 | 226 | 3.2 | 6.4 | 0.00 | 0.00 | 0.00 | 88 | 1014.9 |
| 20260507034554 | 4 | 236 | 3.2 | 6.4 | 0.00 | 0.00 | 0.00 | 89 | 1014.9 |
| 20260507033101 | 3 | 239 | 3.2 | 8.0 | 0.00 | 0.00 | 0.00 | 89 | 1014.8 |
| 20260507031558 | 3 | 237 | 3.2 | 6.4 | 0.00 | 0.00 | 0.00 | 89 | 1014.7 |
| 20260507030104 | 3 | 227 | 4.8 | 6.4 | 0.00 | 0.00 | 0.00 | 87 | 1014.6 |
| 20260507024602 | 4 | 239 | 4.8 | 6.4 | 0.00 | 0.00 | 0.00 | 87 | 1014.5 |
| 20260507023040 | 3 | 241 | 3.2 | 6.4 | 0.00 | 0.00 | 0.00 | 87 | 1014.5 |
| 20260507021545 | 4 | 233 | 0.0 | 4.8 | 0.00 | 0.00 | 0.00 | 87 | 1014.4 |
| 20260507020049 | 4 | 229 | 0.0 | 3.2 | 0.00 | 0.00 | 0.00 | 86 | 1014.4 |
| 20260507014543 | 4 | 247 | 0.0 | 1.6 | 0.00 | 0.00 | 0.00 | 87 | 1014.2 |
| 20260507013038 | 4 | 257 | 0.0 | 1.6 | 0.00 | 0.00 | 0.00 | 86 | 1014.1 |
| 20260507011535 | 5 | 281 | 0.0 | 1.6 | 0.00 | 0.00 | 0.00 | 86 | 1014.2 |
| 20260507010035 | 5 | 282 | 0.0 | 1.6 | 0.00 | 0.00 | 0.00 | 85 | 1014.2 |
| 20260507004526 | 5 | 301 | 0.0 | 1.6 | 0.00 | 0.00 | 0.00 | 84 | 1014.1 |
| 20260507003023 | 5 | 278 | 0.0 | 4.8 | 0.00 | 0.00 | 0.00 | 84 | 1014.1 |
| 20260507001525 | 6 | 214 | 1.6 | 8.0 | 0.00 | 0.00 | 0.00 | 84 | 1014.1 |
| 20260507000018 | 6 | 224 | 3.2 | 8.0 | 0.00 | 0.00 | 0.00 | 84 | 1014.0 |
| 20260506234517 | 6 | 214 | 4.8 | 9.7 | 0.00 | 0.00 | 0.00 | 83 | 1013.8 |
| 20260506233015 | 6 | 229 | 4.8 | 9.7 | 0.00 | 0.00 | 0.00 | 82 | 1013.9 |
| 20260506231512 | 6 | 234 | 4.8 | 9.7 | 0.00 | 0.00 | 0.00 | 81 | 1013.9 |
| 20260506230009 | 6 | 245 | 4.8 | 8.0 | 0.00 | 0.00 | 0.00 | 80 | 1013.8 |
| 20260506224507 | 6 | 239 | 3.2 | 8.0 | 0.00 | 0.00 | 0.00 | 79 | 1013.9 |
| 20260506223004 | 6 | 223 | 3.2 | 6.4 | 0.00 | 0.00 | 0.00 | 79 | 1013.8 |
| 20260506221501 | 6 | 255 | 3.2 | 9.7 | 0.00 | 0.00 | 0.00 | 78 | 1013.7 |
| 20260506214558 | 6 | 236 | 3.2 | 6.4 | 0.00 | 0.00 | 0.00 | 76 | 1013.6 |
| 20260506213055 | 7 | 259 | 1.6 | 6.4 | 0.00 | 0.00 | 0.00 | 75 | 1013.6 |
| 20260506211552 | 7 | 218 | 0.0 | 4.8 | 0.00 | 0.00 | 0.00 | 74 | 1013.5 |
| 20260506210052 | 7 | 253 | 1.6 | 4.8 | 0.00 | 0.00 | 0.00 | 73 | 1013.4 |
| 20260506204550 | 8 | 265 | 1.6 | 4.8 | 0.00 | 0.00 | 0.00 | 71 | 1013.3 |
| 20260506203048 | 8 | 244 | 3.2 | 9.7 | 0.00 | 0.00 | 0.00 | 69 | 1013.2 |
| 20260506201547 | 8 | 235 | 3.2 | 6.4 | 0.00 | 0.00 | 0.00 | 65 | 1013.0 |
| 20260506200047 | 8 | 236 | 4.8 | 6.4 | 0.00 | 0.00 | 0.00 | 62 | 1013.0 |
| 20260506194547 | 8 | 209 | 1.6 | 6.4 | 0.00 | 0.00 | 0.00 | 59 | 1012.9 |
| 20260506193045 | 9 | 218 | 0.0 | 4.8 | 0.00 | 0.00 | 0.00 | 57 | 1012.9 |
| 20260506191544 | 10 | 225 | 0.0 | 4.8 | 0.00 | 0.00 | 0.00 | 56 | 1012.8 |
| 20260506190044 | 10 | 217 | 1.6 | 4.8 | 0.00 | 0.00 | 0.00 | 54 | 1012.8 |
| 20260506184547 | 10 | 226 | 3.2 | 6.4 | 0.00 | 0.00 | 0.00 | 52 | 1012.5 |
| 20260506183039 | 11 | 212 | 3.2 | 9.7 | 0.00 | 0.00 | 0.00 | 51 | 1012.3 |
| 20260506181537 | 11 | 227 | 6.4 | 9.7 | 0.00 | 0.00 | 0.00 | 48 | 1011.8 |
| 20260506180037 | 12 | 196 | 8.0 | 16.1 | 0.00 | 0.00 | 0.00 | 46 | 1011.8 |
| 20260506174536 | 12 | 214 | 4.8 | 12.9 | 0.00 | 0.00 | 0.00 | 46 | 1011.7 |
| 20260506173050 | 12 | 245 | 8.0 | 12.9 | 0.00 | 0.00 | 0.00 | 45 | 1011.7 |
| 20260506171533 | 12 | 226 | 4.8 | 14.5 | 0.00 | 0.00 | 0.00 | 44 | 1011.6 |
| 20260506170036 | 12 | 241 | 6.4 | 16.1 | 0.00 | 0.00 | 0.00 | 43 | 1011.5 |
| 20260506164534 | 12 | 224 | 9.7 | 17.7 | 0.00 | 0.00 | 0.00 | 40 | 1011.5 |
| 20260506163036 | 12 | 217 | 8.0 | 19.3 | 0.00 | 0.00 | 0.00 | 39 | 1011.4 |
| 20260506161528 | 12 | 179 | 3.2 | 12.9 | 0.00 | 0.00 | 0.00 | 43 | 1011.5 |
| 20260506160026 | 12 | 268 | 3.2 | 9.7 | 0.00 | 0.00 | 0.00 | 43 | 1011.5 |
| 20260506154523 | 11 | 68 | 0.0 | 4.8 | 0.00 | 0.00 | 0.00 | 65 | 1011.6 |
| 20260506153022 | 11 | 65 | 1.6 | 9.7 | 0.00 | 0.00 | 0.00 | 68 | 1011.5 |
| 20260506151525 | 11 | 30 | 4.8 | 16.1 | 0.00 | 0.00 | 0.00 | 67 | 1011.5 |
| 20260506150019 | 11 | 59 | 9.7 | 27.4 | 0.00 | 0.00 | 0.00 | 68 | 1011.5 |
| 20260506144518 | 11 | 46 | 16.1 | 19.3 | 0.00 | 0.00 | 0.00 | 70 | 1011.4 |
| 20260506143024 | 11 | 18 | 12.9 | 19.3 | 0.00 | 0.00 | 0.00 | 72 | 1011.3 |
| 20260506141517 | 11 | 24 | 12.9 | 17.7 | 0.00 | 0.00 | 0.00 | 72 | 1011.4 |
| 20260506140017 | 11 | 28 | 11.3 | 17.7 | 0.00 | 0.00 | 0.00 | 70 | 1011.2 |
| 20260506134516 | 11 | 44 | 6.4 | 20.9 | 0.00 | 0.00 | 0.00 | 70 | 1011.2 |
| 20260506133016 | 11 | 38 | 11.3 | 20.9 | 0.00 | 0.00 | 0.00 | 71 | 1011.2 |
| 20260506131527 | 11 | 42 | 17.7 | 22.5 | 0.00 | 0.00 | 0.00 | 72 | 1010.9 |
| 20260506130016 | 11 | 30 | 17.7 | 24.1 | 0.00 | 0.00 | 0.00 | 72 | 1010.9 |
| 20260506124513 | 10 | 37 | 19.3 | 22.5 | 0.00 | 0.00 | 0.00 | 72 | 1011.0 |
| 20260506123013 | 11 | 35 | 17.7 | 20.9 | 0.00 | 0.00 | 0.00 | 72 | 1010.9 |
| 20260506121512 | 11 | 32 | 14.5 | 17.7 | 0.00 | 0.00 | 0.00 | 70 | 1010.9 |
| 20260506120015 | 11 | 37 | 9.7 | 12.9 | 0.00 | 0.00 | 0.00 | 68 | 1011.0 |
| 20260506114509 | 11 | 40 | 8.0 | 9.7 | 0.00 | 0.00 | 0.00 | 67 | 1011.1 |
| 20260506113006 | 11 | 39 | 4.8 | 8.0 | 0.00 | 0.00 | 0.00 | 66 | 1011.0 |
| 20260506111600 | 11 | 60 | 3.2 | 9.7 | 0.00 | 0.00 | 0.00 | 68 | 1011.0 |
| 20260506110103 | 11 | 35 | 8.0 | 12.9 | 0.00 | 0.00 | 0.00 | 68 | 1011.2 |
| 20260506104557 | 10 | 51 | 9.7 | 11.3 | 0.00 | 0.00 | 0.00 | 69 | 1011.2 |
| 20260506103058 | 10 | 31 | 11.3 | 16.1 | 0.00 | 0.00 | 0.00 | 69 | 1011.2 |
| 20260506101559 | 10 | 45 | 11.3 | 16.1 | 0.00 | 0.00 | 0.00 | 69 | 1011.2 |
| 20260506100109 | 10 | 10 | 12.9 | 17.7 | 0.00 | 0.00 | 0.00 | 71 | 1011.1 |
| 20260506094551 | 10 | 26 | 11.3 | 14.5 | 0.00 | 0.00 | 0.00 | 69 | 1011.1 |
| 20260506093051 | 10 | 41 | 9.7 | 14.5 | 0.00 | 0.00 | 0.00 | 68 | 1011.2 |
| 20260506091548 | 10 | 31 | 8.0 | 11.3 | 0.00 | 0.00 | 0.00 | 66 | 1011.1 |
| 20260506090046 | 10 | 34 | 8.0 | 11.3 | 0.00 | 0.00 | 0.00 | 66 | 1011.0 |
| 20260506084607 | 9 | 30 | 4.8 | 8.0 | 0.00 | 0.00 | 0.00 | 66 | 1011.1 |
| 20260506083044 | 9 | 32 | 4.8 | 9.7 | 0.00 | 0.00 | 0.00 | 63 | 1011.0 |
| 20260506081549 | 8 | 53 | 1.6 | 4.8 | 0.00 | 0.00 | 0.00 | 64 | 1010.9 |
| 20260506073045 | 8 | 109 | 3.2 | 9.7 | 0.00 | 0.00 | 0.00 | 65 | 1011.1 |
| 20260506071538 | 8 | 109 | 6.4 | 11.3 | 0.00 | 0.00 | 0.00 | 63 | 1011.1 |